Date,TemperatureHighF,TemperatureAvgF,TemperatureLowF,DewpointHighF,DewpointAvgF,DewpointLowF,HumidityHigh,HumidityAvg,HumidityLow,PressureMaxIn,PressureMinIn,WindSpeedMaxMPH,WindSpeedAvgMPH,GustSpeedMaxMPH,PrecipitationSumIn
2013-1-1,36.3,31.7,21.6,25.6,19.4,7.5,69,60,51,29.96,29.78,14,2,14,0.00
2013-1-2,32.0,23.3,16.0,12.4,8.5,4.6,62,53,43,30.11,29.93,11,1,11,0.04
2013-1-3,32.0,24.3,14.9,14.5,10.8,7.4,74,57,43,30.11,29.99,12,2,12,0.00
2013-1-4,36.9,30.1,22.5,20.0,16.2,11.7,67,56,45,30.02,29.90,17,4,17,0.00
2013-1-5,41.7,31.2,25.0,20.4,16.1,11.7,71,54,41,30.22,29.96,14,2,14,0.08
2013-1-6,43.5,35.0,28.6,29.4,23.1,19.3,80,62,47,30.14,29.93,14,3,14,0.00
2013-1-7,42.8,33.6,23.0,27.8,21.3,15.8,79,62,41,30.31,29.99,10,1,10,0.00
2013-1-8,45.5,34.1,24.4,26.8,23.0,18.9,81,65,46,30.31,30.25,12,3,12,0.00
2013-1-9,42.3,33.6,22.1,34.0,27.1,18.2,87,77,65,30.31,30.08,13,3,13,0.00
2013-1-10,46.0,38.2,32.4,28.5,22.2,19.0,70,53,39,30.46,30.16,13,2,13,0.00
2013-1-11,42.3,36.9,29.5,41.5,29.5,20.3,97,75,56,30.46,30.05,10,2,10,0.35
2013-1-12,48.0,41.4,35.8,45.9,40.5,35.3,98,97,90,30.11,30.05,8,0,8,0.00
2013-1-13,46.6,43.8,39.9,46.0,43.3,39.4,98,98,98,30.11,29.96,9,2,9,0.00
2013-1-14,55.0,46.8,34.5,54.3,40.5,25.6,98,81,53,30.22,29.87,14,2,14,0.12
2013-1-15,34.9,33.2,31.6,29.9,27.1,24.0,89,78,67,30.28,30.14,0,0,4,0.12
2013-1-16,33.1,31.2,29.7,32.6,29.6,25.7,98,94,79,30.14,29.78,0,0,0,0.00
2013-1-17,42.3,34.9,31.3,32.8,27.0,20.0,98,74,50,30.05,29.87,10,1,10,0.24
2013-1-18,31.3,25.3,20.7,20.9,9.7,3.2,71,52,39,30.37,29.93,4,0,4,0.20
2013-1-19,45.7,34.8,21.9,24.2,18.0,7.0,65,50,41,30.28,29.87,14,4,15,0.12
2013-1-20,49.5,37.0,24.1,26.4,18.4,5.2,73,48,30,29.96,29.66,29,5,29,0.12
2013-1-21,28.9,23.6,19.4,13.0,7.8,3.2,70,51,43,29.99,29.75,10,2,11,0.12
2013-1-22,22.3,15.2,7.5,5.7,-2.5,-12.2,60,45,37,30.11,29.78,21,4,21,0.00
2013-1-23,20.1,10.3,5.0,0.9,-9.5,-14.5,46,39,37,30.14,30.05,16,2,16,0.12
2013-1-24,24.4,12.9,4.5,3.7,-6.9,-15.0,53,40,36,30.31,30.02,15,2,15,0.12
2013-1-25,23.4,13.6,7.5,6.1,-2.6,-11.2,67,49,41,30.31,29.96,8,2,8,0.12
2013-1-26,25.5,15.9,8.4,6.3,2.5,-0.7,67,56,42,30.28,29.96,15,2,15,0.00
2013-1-27,33.6,20.9,8.8,12.3,5.2,-3.7,69,51,39,30.43,30.28,12,1,12,0.00
2013-1-28,33.3,27.7,16.3,32.2,22.0,6.3,96,79,59,30.40,29.93,10,3,11,0.00
2013-1-29,51.8,40.4,33.3,42.4,37.0,32.2,98,89,67,30.08,29.96,13,2,13,0.12
2013-1-30,60.6,49.6,41.2,60.1,49.0,40.1,98,98,96,30.02,29.31,15,4,15,0.47
2013-1-31,59.2,40.3,23.5,58.6,26.8,5.3,98,61,39,29.72,29.04,28,7,28,1.42
2013-2-1,32.4,23.1,17.1,11.1,7.9,3.7,68,52,34,30.14,29.72,20,4,20,0.00
2013-2-2,29.1,19.5,11.7,14.6,6.1,-1.0,78,56,41,30.19,29.96,13,4,13,0.00
2013-2-3,29.5,21.4,14.5,17.1,13.0,8.7,84,71,53,29.96,29.72,9,1,9,0.00
2013-2-4,29.5,22.3,15.4,17.1,7.3,2.9,84,53,41,29.90,29.75,16,3,16,0.00
2013-2-5,30.2,26.0,22.8,23.8,18.3,10.6,87,73,58,29.90,29.81,6,1,6,0.00
2013-2-6,37.6,29.0,20.1,28.2,17.6,5.7,90,65,43,30.25,29.84,13,2,13,0.04
2013-2-7,34.7,23.9,14.5,14.4,8.2,3.6,66,51,41,30.40,30.22,8,2,8,0.04
2013-2-8,32.7,29.5,26.8,29.6,25.6,14.8,94,85,60,30.22,29.60,13,6,13,0.00
2013-2-9,33.8,24.8,13.8,27.1,12.7,-0.0,95,62,41,30.25,29.69,17,2,17,0.00
2013-2-10,42.3,24.8,10.0,17.1,7.5,-1.8,75,48,36,30.37,30.22,8,2,8,0.16
2013-2-11,41.2,35.6,27.9,39.9,31.4,12.3,98,86,51,30.22,29.60,11,3,11,0.04
2013-2-12,43.5,36.3,28.6,35.8,21.9,17.7,98,56,43,29.90,29.69,17,4,17,0.00
2013-2-13,44.6,32.6,20.5,29.6,21.1,15.6,88,65,41,29.90,29.63,8,1,8,0.00
2013-2-14,45.3,35.2,28.0,31.7,25.0,19.8,91,69,44,29.93,29.66,10,1,10,0.16
2013-2-15,53.4,40.3,28.0,30.4,25.4,20.8,80,57,37,29.93,29.87,16,4,16,0.00
2013-2-16,35.8,30.9,24.4,30.1,20.5,7.3,89,66,48,29.93,29.69,0,0,2,0.12
2013-2-17,33.1,22.9,12.9,8.6,3.2,-4.9,48,42,34,29.93,29.63,22,2,22,0.00
2013-2-18,33.8,22.4,10.8,9.4,2.4,-6.8,49,41,34,30.16,29.93,15,3,15,0.00
2013-2-19,40.3,32.5,23.2,37.3,21.9,6.5,95,67,44,30.11,29.63,14,4,14,0.24
2013-2-20,31.8,26.1,20.1,20.5,9.3,3.5,63,49,41,29.90,29.69,15,0,15,0.00
2013-2-21,32.7,23.9,18.5,12.0,7.8,4.0,65,50,42,30.22,29.90,0,0,0,0.00
2013-2-22,36.5,27.4,16.9,25.8,15.8,7.3,77,62,46,30.31,30.16,10,3,10,0.00
2013-2-23,38.5,35.4,32.2,37.4,33.9,25.8,98,94,77,30.19,29.78,10,3,10,0.16
2013-2-24,42.3,34.3,27.5,41.0,28.2,16.3,98,80,57,29.93,29.72,14,1,14,0.04
2013-2-25,43.5,33.4,26.2,26.1,22.4,16.2,80,65,48,30.16,29.93,7,1,7,0.00
2013-2-26,42.1,33.1,23.7,32.0,25.9,20.8,97,76,52,30.19,29.81,13,4,13,0.04
2013-2-27,45.9,38.6,32.9,45.0,38.1,32.1,98,98,97,29.81,29.46,17,6,17,0.28
2013-2-28,48.0,38.0,31.1,46.8,35.0,24.7,98,90,59,29.57,29.52,10,1,10,0.28
2013-3-1,46.2,35.2,29.3,29.1,25.0,20.0,91,68,45,29.75,29.57,12,1,12,0.28
2013-3-2,39.2,31.2,26.2,21.3,18.5,15.6,71,59,48,29.75,29.66,10,1,10,0.28
2013-3-3,36.0,28.5,23.7,16.8,13.7,9.5,66,54,43,29.72,29.63,14,2,14,0.28
2013-3-4,41.0,30.9,23.0,18.5,14.0,9.2,61,50,39,29.87,29.72,13,3,13,0.28
2013-3-5,46.0,35.4,26.8,22.6,18.9,14.9,64,51,39,29.96,29.87,9,3,9,0.28
2013-3-6,37.6,35.6,33.8,33.8,27.0,21.3,89,71,58,29.90,29.78,16,8,16,0.00
2013-3-7,42.8,34.9,30.2,29.9,24.5,19.3,90,67,47,30.02,29.87,13,4,13,0.00
2013-3-8,41.2,32.5,27.3,30.5,25.9,20.4,91,77,59,30.16,29.96,8,1,8,0.28
2013-3-9,53.6,38.1,25.9,26.5,21.3,17.1,73,53,31,30.25,30.14,8,2,8,0.28
2013-3-10,58.1,39.6,24.4,32.0,25.9,19.2,86,61,35,30.28,30.19,12,3,12,0.28
2013-3-11,54.1,43.1,34.3,46.5,37.6,29.1,96,82,48,30.22,30.02,14,4,14,0.28
2013-3-12,56.5,49.3,38.7,55.9,47.2,34.5,98,93,79,30.02,29.63,20,6,20,1.22
2013-3-13,52.0,39.7,30.9,35.4,26.5,18.6,91,62,36,29.84,29.75,14,2,14,0.28
2013-3-14,41.5,31.6,25.7,19.2,10.0,3.9,57,41,30,29.90,29.78,18,4,18,0.28
2013-3-15,42.4,34.2,22.1,24.4,15.3,6.2,58,46,39,29.90,29.66,18,4,18,0.28
2013-3-16,36.7,31.4,27.7,26.1,21.2,15.7,83,66,47,29.84,29.69,6,1,6,0.28
2013-3-17,36.9,30.1,22.6,25.5,16.4,10.6,87,58,41,30.22,29.84,10,1,10,0.28
2013-3-18,34.0,27.4,21.7,28.8,15.2,5.9,93,61,44,30.28,29.90,13,4,13,0.28
2013-3-19,44.2,35.0,30.6,36.1,30.3,13.2,98,84,46,29.90,29.63,14,3,14,0.12
2013-3-20,44.1,33.8,25.5,20.4,15.7,12.4,64,48,36,29.81,29.72,18,4,18,0.00
2013-3-21,39.2,30.8,23.9,22.9,13.7,5.7,76,50,36,29.78,29.57,10,2,10,0.00
2013-3-22,41.2,30.6,21.9,18.1,13.1,5.3,63,48,39,29.84,29.66,15,3,15,0.00
2013-3-23,45.7,35.3,27.7,20.8,15.8,11.9,54,45,37,29.87,29.78,15,3,15,0.00
2013-3-24,46.9,36.6,24.3,22.0,17.4,11.4,61,46,37,29.90,29.66,8,2,8,0.00
2013-3-25,37.2,35.2,33.1,34.1,26.8,18.8,94,73,50,29.66,29.43,11,3,11,0.04
2013-3-26,53.4,39.6,32.2,40.8,29.0,19.5,98,71,36,29.84,29.57,12,1,12,0.00
2013-3-27,53.8,39.2,27.5,29.7,23.2,17.8,74,55,32,29.96,29.84,13,2,13,0.00
2013-3-28,50.5,40.2,30.6,29.4,24.9,22.8,78,56,39,30.08,29.93,9,2,9,0.00
2013-3-29,57.4,43.1,31.8,29.8,24.2,21.0,68,48,32,30.11,30.02,13,1,13,0.00
2013-3-30,61.0,43.8,29.3,29.9,22.7,16.2,76,47,22,30.11,30.02,13,2,13,0.00
2013-3-31,58.5,41.9,27.9,40.7,28.5,17.1,93,62,35,30.08,29.66,21,4,21,0.08
2013-4-1,59.2,45.0,30.9,46.5,32.6,9.1,97,66,35,29.87,29.60,23,4,23,0.04
2013-4-2,36.3,29.5,24.6,11.9,8.0,6.0,51,40,31,30.02,29.87,10,2,11,0.00
2013-4-3,48.9,35.1,25.9,17.1,9.8,4.5,44,35,27,30.25,29.06,22,3,22,0.00
2013-4-4,57.4,40.5,25.2,24.2,15.6,7.6,50,37,26,30.31,30.01,13,4,13,0.00
2013-4-5,64.6,47.0,32.7,26.5,20.5,13.7,57,36,21,30.01,29.72,14,3,14,0.00
2013-4-6,56.7,40.6,28.6,19.3,13.0,5.9,50,34,16,30.22,29.95,15,3,15,0.00
2013-4-7,65.3,48.4,34.0,36.6,27.8,15.9,62,46,30,30.22,29.95,17,6,21,0.00
2013-4-8,79.2,61.1,43.3,41.8,38.1,34.9,79,46,22,30.04,29.92,14,4,14,0.00
2013-4-9,85.5,67.9,53.6,48.6,40.7,30.2,73,41,20,29.95,29.86,24,3,24,0.04
2013-4-10,87.6,66.7,52.9,57.9,48.3,40.4,98,56,29,29.92,29.78,13,3,13,0.71
2013-4-11,59.4,54.1,45.0,57.9,51.1,42.0,98,90,59,29.95,29.75,13,3,13,0.00
2013-4-12,45.0,41.1,38.5,42.9,39.2,35.6,98,93,73,29.95,29.66,13,6,13,0.00
2013-4-13,59.9,46.6,36.9,46.1,34.7,27.7,98,68,37,29.92,29.72,15,2,15,0.00
2013-4-14,59.7,49.6,38.8,34.1,28.8,24.5,72,46,30,30.13,29.92,15,2,17,0.00
2013-4-15,65.5,50.4,40.3,35.5,27.6,21.2,58,42,33,30.31,30.13,13,4,13,0.00
2013-4-16,70.5,57.8,45.0,52.1,44.5,32.9,82,62,44,30.28,30.07,16,6,16,0.00
2013-4-17,72.3,59.8,49.8,53.8,38.3,28.9,86,49,24,30.25,30.07,11,2,11,0.00
2013-4-18,58.3,50.9,41.5,52.4,40.1,33.0,97,68,42,30.28,30.01,15,5,15,0.00
2013-4-19,76.5,63.2,53.1,64.3,58.1,50.1,98,85,55,30.04,29.60,22,7,22,1.26
2013-4-20,60.1,49.3,38.8,50.3,31.5,16.9,93,54,30,30.25,29.66,19,3,19,0.16
2013-4-21,56.1,43.2,30.2,25.0,19.4,14.6,54,39,29,30.54,30.25,9,2,9,0.00
2013-4-22,57.7,44.5,32.0,32.8,26.5,21.1,75,50,36,30.57,30.40,13,4,13,0.00
2013-4-23,48.4,42.6,36.7,38.4,33.4,29.7,83,70,61,30.40,30.07,10,4,10,0.00
2013-4-24,74.8,55.4,32.4,49.9,41.0,30.0,92,62,36,30.07,29.78,15,4,15,0.00
2013-4-25,67.3,53.9,40.5,50.7,28.7,21.3,74,40,23,30.22,29.83,26,3,26,0.00
2013-4-26,67.8,52.7,37.6,33.6,27.0,21.0,62,39,23,30.37,30.22,10,2,10,0.00
2013-4-27,73.4,55.5,34.5,33.5,28.5,23.8,69,38,23,30.37,30.22,10,2,10,0.00
2013-4-28,75.6,58.5,38.5,40.7,33.8,27.3,72,42,25,30.25,30.13,13,4,13,0.00
2013-4-29,53.8,51.1,49.8,48.7,44.6,36.3,95,79,56,30.19,30.13,13,4,13,0.08
2013-4-30,69.8,55.6,44.2,50.7,38.8,19.9,95,60,27,30.28,30.13,13,3,13,0.00
2013-5-1,71.6,54.2,35.1,38.6,31.2,24.5,73,45,23,30.42,30.28,12,2,12,0.00
2013-5-2,78.3,59.5,37.0,44.8,36.7,31.8,84,47,25,30.42,30.28,9,2,9,0.00
2013-5-3,68.9,57.5,45.9,38.1,33.7,27.9,67,42,26,30.40,30.31,13,4,13,0.00
2013-5-4,75.2,56.4,40.8,45.0,37.0,33.8,88,53,25,30.31,30.16,13,3,13,0.00
2013-5-5,69.6,52.9,38.5,40.2,35.7,32.2,86,56,28,30.25,30.16,13,3,13,0.00
2013-5-6,73.8,56.3,38.8,47.3,42.6,32.6,84,63,37,30.22,30.10,10,2,10,0.00
2013-5-7,75.7,61.9,46.8,55.5,48.0,41.5,91,64,39,30.13,30.04,10,3,10,0.00
2013-5-8,66.0,60.2,54.5,64.1,58.1,52.7,97,93,82,30.07,29.92,9,2,9,0.75
2013-5-9,68.2,57.9,53.2,60.2,53.2,49.8,97,85,60,29.95,29.86,10,0,10,0.04
2013-5-10,80.8,66.0,49.3,62.2,51.4,46.3,96,64,32,29.98,29.89,10,1,10,0.04
2013-5-11,70.5,63.6,58.6,64.0,59.7,55.8,94,87,71,29.89,29.69,11,2,11,0.63
2013-5-12,65.8,57.4,44.6,56.6,37.7,22.2,93,52,27,29.89,29.66,18,3,18,0.00
2013-5-13,55.4,46.3,37.4,31.5,25.8,23.0,67,46,32,30.07,29.89,14,2,14,0.00
2013-5-14,63.1,49.3,35.2,31.6,26.4,22.0,71,45,24,30.10,29.98,11,2,11,0.00
2013-5-15,72.3,58.7,40.1,54.1,42.3,30.4,81,55,43,30.01,29.66,13,3,13,0.00
2013-5-16,82.4,66.5,52.0,56.1,48.3,38.3,90,57,30,29.83,29.72,10,1,10,0.00
2013-5-17,73.6,61.5,51.4,41.9,38.0,35.2,63,43,28,30.16,29.83,8,1,9,0.00
2013-5-18,63.9,55.9,47.7,52.0,46.2,39.0,86,71,45,30.25,30.16,8,1,8,0.00
2013-5-19,60.3,56.4,54.3,57.6,54.0,51.3,96,92,86,30.25,30.13,10,3,10,0.08
2013-5-20,79.3,65.9,56.3,66.0,60.3,55.4,98,84,54,30.16,29.95,9,1,9,0.00
2013-5-21,88.9,72.8,59.2,69.5,63.4,56.9,96,75,45,29.98,29.83,12,2,12,0.00
2013-5-22,84.6,73.2,66.6,69.9,65.7,63.1,93,78,58,29.89,29.80,11,2,11,0.00
2013-5-23,74.1,68.5,62.4,69.9,64.7,60.3,97,88,71,29.89,29.75,14,2,14,0.87
2013-5-24,63.7,51.4,41.7,62.8,49.4,38.8,97,93,85,29.95,29.69,10,2,10,0.28
2013-5-25,54.5,46.5,40.6,43.2,37.5,30.5,96,73,47,29.98,29.89,13,3,13,0.28
2013-5-26,68.7,54.4,44.1,54.3,37.9,31.5,84,57,29,30.19,29.95,17,3,17,0.00
2013-5-27,76.5,57.9,38.1,48.1,36.6,31.5,81,49,25,30.22,30.10,14,1,14,0.16
2013-5-28,60.4,55.0,47.8,54.7,48.4,39.4,95,79,59,30.19,30.10,6,0,6,0.39
2013-5-29,82.2,68.2,55.9,72.8,61.5,54.5,98,82,53,30.10,30.01,12,1,12,0.00
2013-5-30,92.8,77.2,65.8,70.3,60.6,52.7,89,60,31,30.13,30.04,10,2,10,0.00
2013-5-31,94.3,78.1,65.8,72.8,60.9,52.6,88,59,33,30.13,30.01,9,1,9,0.00
2013-6-1,92.3,80.0,65.8,71.2,63.1,59.0,86,58,39,30.01,29.89,10,2,10,0.00
2013-6-2,86.2,75.5,68.5,69.2,64.1,60.7,90,69,46,29.92,29.78,13,2,13,0.20
2013-6-3,79.3,69.1,60.8,66.6,61.9,44.1,94,79,52,29.89,29.80,9,0,9,0.35
2013-6-4,77.2,62.9,52.2,44.9,41.6,39.2,69,47,31,30.10,29.89,12,2,12,0.31
2013-6-5,78.8,63.1,50.2,46.7,41.5,35.6,62,46,32,30.19,30.10,8,1,9,0.00
2013-6-6,67.3,60.0,52.0,56.6,50.8,42.8,92,73,52,30.13,29.98,10,2,13,0.28
2013-6-7,61.7,60.0,58.1,60.5,58.8,56.1,98,96,92,29.98,29.63,12,2,12,2.24
2013-6-8,72.7,64.2,56.3,65.9,60.5,54.6,98,88,65,30.04,29.60,9,1,9,0.24
2013-6-9,81.9,67.6,55.8,63.5,56.2,52.5,94,70,40,30.16,30.04,10,1,10,0.24
2013-6-10,66.0,64.0,62.2,64.2,61.0,56.0,97,90,80,30.16,29.80,9,1,9,0.94
2013-6-11,74.3,69.1,65.1,68.0,63.4,56.9,98,83,63,29.80,29.66,13,2,13,0.24
2013-6-12,80.6,68.2,59.9,58.8,53.0,49.3,78,60,35,29.86,29.72,11,2,11,0.24
2013-6-13,62.4,59.5,55.6,59.4,56.1,52.9,97,89,78,29.83,29.45,14,2,14,0.63
2013-6-14,74.5,58.9,51.8,57.6,54.0,51.0,98,86,49,29.89,29.54,11,1,11,0.39
2013-6-15,80.4,65.9,55.0,61.7,53.4,47.5,97,68,33,30.01,29.89,11,1,11,0.00
2013-6-16,77.2,66.8,54.9,61.4,55.1,50.1,89,68,43,30.01,29.80,18,2,18,0.00
2013-6-17,84.0,71.9,62.2,65.4,59.9,50.7,92,68,36,29.92,29.83,10,1,10,0.00
2013-6-18,81.0,67.8,60.1,67.2,60.8,55.8,98,80,45,29.89,29.80,6,0,6,0.35
2013-6-19,78.6,63.8,55.6,63.5,53.7,44.5,98,75,33,30.16,29.89,8,0,8,0.00
2013-6-20,81.5,65.7,50.5,57.2,51.4,46.2,92,63,32,30.25,30.16,8,1,8,0.00
2013-6-21,84.7,69.9,57.6,56.3,52.6,47.9,76,56,35,30.28,30.22,11,2,11,0.00
2013-6-22,86.7,70.9,56.1,62.3,57.7,51.2,85,65,40,30.25,30.13,10,1,10,0.00
2013-6-23,89.8,75.6,66.2,67.7,63.7,60.5,86,68,43,30.19,30.07,13,2,13,0.00
2013-6-24,94.1,77.3,68.9,69.4,65.6,57.8,90,70,36,30.07,29.98,10,1,10,0.00
2013-6-25,92.5,76.6,68.2,70.5,65.2,62.6,87,69,42,30.01,29.83,15,2,15,0.16
2013-6-26,84.9,73.7,66.7,67.8,64.9,62.4,89,75,51,29.86,29.80,10,1,10,0.00
2013-6-27,88.7,74.7,66.2,70.6,66.2,62.9,97,77,46,29.83,29.54,9,2,9,1.65
2013-6-28,85.1,73.9,68.5,72.7,67.3,62.3,98,82,50,29.57,29.48,12,2,12,0.20
2013-6-29,86.0,73.3,65.7,66.3,62.3,57.5,93,71,41,29.72,29.51,11,1,11,0.00
2013-6-30,81.7,73.1,64.8,71.1,66.8,60.7,91,81,66,29.92,29.72,9,1,9,0.00
2013-7-1,73.8,71.6,68.7,72.6,70.0,67.3,97,95,87,30.04,29.89,9,2,9,1.46
2013-7-2,80.8,74.1,71.2,75.0,70.7,67.4,97,89,75,30.19,30.04,8,2,8,0.16
2013-7-3,82.4,74.9,70.3,71.8,69.3,67.6,93,83,67,30.25,30.16,12,1,12,0.00
2013-7-4,90.9,78.8,72.5,72.4,69.9,67.7,92,76,51,30.25,30.16,11,2,11,0.00
2013-7-5,92.3,80.4,72.3,72.5,68.7,65.2,90,70,45,30.22,30.10,12,2,12,0.00
2013-7-6,86.2,79.4,73.4,73.3,68.9,66.5,88,71,52,30.16,30.04,11,2,13,0.00
2013-7-7,95.0,82.1,70.3,73.4,68.4,64.4,87,65,42,30.10,29.98,12,1,12,0.20
2013-7-8,87.8,75.5,67.3,68.8,65.3,59.9,92,73,41,30.07,29.98,10,1,10,0.00
2013-7-9,89.1,73.7,66.7,68.5,65.1,61.3,93,76,46,30.10,29.98,17,1,17,0.20
2013-7-10,82.2,75.5,69.8,72.5,70.1,67.4,96,84,63,30.04,29.83,12,1,12,0.04
2013-7-11,81.1,74.9,69.8,71.6,67.3,57.1,91,78,55,29.95,29.83,8,0,8,0.00
2013-7-12,74.8,70.6,67.5,68.6,63.4,58.0,95,78,68,30.10,29.95,6,1,6,0.00
2013-7-13,77.7,71.0,66.0,73.6,68.9,65.0,98,93,85,30.28,30.10,6,0,6,0.08
2013-7-14,90.1,78.9,72.7,75.1,70.0,63.0,95,76,45,30.34,30.25,11,1,11,0.00
2013-7-15,92.3,80.3,71.8,73.7,70.0,67.6,90,72,50,30.28,30.16,8,1,8,0.00
2013-7-16,92.1,79.3,70.2,68.6,66.8,62.2,86,67,40,30.25,30.16,9,0,9,0.00
2013-7-17,92.8,79.9,69.4,70.4,67.0,62.7,89,67,39,30.22,30.07,6,0,6,0.00
2013-7-18,95.0,83.1,73.9,73.4,68.7,63.4,83,64,37,30.10,29.98,8,1,8,0.00
2013-7-19,93.0,83.2,73.4,74.4,70.6,67.8,83,67,48,30.01,29.83,10,2,10,0.00
2013-7-20,91.6,80.4,74.1,70.7,67.1,60.8,80,65,43,29.86,29.78,17,1,17,0.00
2013-7-21,86.9,77.4,71.6,68.1,64.1,60.1,84,65,43,29.98,29.86,0,0,0,0.00
2013-7-22,83.5,74.5,68.9,72.4,67.7,62.4,95,80,63,29.98,29.80,6,0,6,0.79
2013-7-23,82.9,74.1,69.1,72.7,69.6,64.8,97,87,64,29.80,29.60,10,1,10,1.02
2013-7-24,77.2,70.0,60.6,67.6,60.4,49.2,94,73,50,29.95,29.66,9,1,9,0.00
2013-7-25,68.0,62.7,58.3,57.9,52.9,48.2,81,70,64,30.04,29.95,5,0,5,0.00
2013-7-26,81.5,68.9,61.5,59.4,56.6,52.6,87,67,40,30.04,30.01,8,1,8,0.00
2013-7-27,82.0,69.9,57.0,72.5,60.8,55.5,97,76,47,30.04,29.95,8,2,8,0.00
2013-7-28,75.7,68.5,65.7,70.6,64.0,57.1,94,86,68,29.98,29.92,8,1,8,0.75
2013-7-29,79.9,69.1,60.6,68.1,59.7,50.5,96,75,37,30.13,29.95,10,1,10,0.04
2013-7-30,76.3,65.9,56.5,61.4,54.3,51.0,89,68,44,30.19,30.10,9,1,9,0.00
2013-7-31,73.9,60.6,56.1,59.3,54.3,52.2,89,80,59,30.16,30.04,5,0,5,0.00
2013-8-1,66.9,65.6,63.9,65.8,62.8,58.1,96,91,78,30.04,29.83,10,2,10,0.47
2013-8-2,78.6,69.3,60.4,68.4,61.5,55.8,97,79,48,29.95,29.83,12,1,12,0.00
2013-8-3,75.4,66.5,61.9,67.7,60.6,56.3,91,82,67,29.92,29.86,13,1,13,0.12
2013-8-4,75.0,65.6,57.9,60.1,54.6,48.4,92,70,44,29.98,29.86,13,1,13,0.00
2013-8-5,75.9,64.0,54.5,53.9,48.7,43.8,82,60,36,30.07,29.98,10,1,10,0.00
2013-8-6,78.8,66.0,53.2,61.1,53.0,48.5,88,66,38,30.10,30.04,8,1,8,0.00
2013-8-7,74.7,68.3,64.4,65.6,62.7,57.8,90,82,69,30.13,30.04,9,2,9,0.00
2013-8-8,80.2,72.0,67.8,74.9,68.7,65.5,94,90,79,30.07,29.98,8,1,8,0.28
2013-8-9,82.4,73.6,70.7,76.7,71.2,68.9,96,92,77,30.01,29.83,15,2,15,0.59
2013-8-10,80.2,70.5,63.9,69.2,63.0,56.5,96,79,49,30.07,29.89,10,1,10,0.00
2013-8-11,77.7,67.2,56.8,61.6,55.9,51.2,87,69,43,30.13,30.04,9,0,10,0.00
2013-8-12,79.0,69.4,64.8,67.3,62.2,55.6,95,79,48,30.04,29.92,6,0,6,0.20
2013-8-13,76.6,69.2,64.6,70.7,65.4,59.3,96,88,72,29.95,29.72,11,1,11,0.94
2013-8-14,70.7,61.9,54.1,61.4,50.2,45.9,91,67,45,30.07,29.80,12,2,12,0.00
2013-8-15,72.3,61.5,50.7,53.0,48.5,45.7,85,64,39,30.16,30.07,8,0,10,0.00
2013-8-16,76.8,63.7,51.6,60.6,50.5,47.2,91,65,37,30.19,30.13,8,0,8,0.00
2013-8-17,76.1,65.4,54.7,60.9,55.2,50.4,90,71,46,30.28,30.19,4,0,4,0.00
2013-8-18,69.6,65.5,60.4,61.8,58.6,54.6,88,79,67,30.25,30.13,6,0,6,0.00
2013-8-19,74.1,66.9,60.1,64.4,59.8,57.9,94,79,58,30.13,30.04,8,1,8,0.00
2013-8-20,83.3,71.4,61.2,68.0,62.0,58.4,93,74,46,30.16,30.07,9,1,9,0.00
2013-8-21,83.5,71.3,59.5,67.5,59.3,54.5,91,69,39,30.19,30.07,9,1,9,0.00
2013-8-22,75.6,70.5,67.6,73.7,68.0,62.1,97,92,82,30.07,29.89,10,1,10,0.75
2013-8-23,75.4,68.9,61.9,67.2,60.1,51.2,97,76,44,30.13,29.92,6,0,6,0.00
2013-8-24,74.5,64.5,56.3,56.1,51.2,46.7,83,64,40,30.34,30.13,6,0,6,0.00
2013-8-25,77.7,64.5,52.0,60.6,51.7,48.0,91,66,38,30.40,30.22,10,1,10,0.00
2013-8-26,78.8,69.3,63.3,66.2,58.7,52.0,89,69,60,30.25,29.92,12,2,12,0.08
2013-8-27,81.9,73.2,67.5,66.7,65.4,62.8,93,78,57,29.92,29.86,8,1,8,0.00
2013-8-28,74.8,69.7,64.9,71.0,67.2,62.1,97,92,82,29.92,29.86,11,0,11,1.22
2013-8-29,75.7,70.1,66.9,72.2,67.6,64.3,98,92,78,30.04,29.89,6,0,6,0.00
2013-8-30,80.2,71.6,66.4,69.3,66.1,64.0,92,84,65,30.04,29.89,12,1,12,0.00
2013-8-31,81.3,74.6,70.3,72.1,69.4,67.4,92,84,71,29.89,29.80,10,1,10,0.00
2013-9-1,80.8,75.2,71.1,72.3,70.0,66.3,93,84,71,29.86,29.80,8,1,8,0.00
2013-9-2,75.2,71.4,69.1,71.9,69.3,66.5,96,93,87,29.83,29.75,6,0,6,0.08
2013-9-3,77.4,68.7,62.1,69.0,60.8,52.1,98,78,43,29.92,29.75,10,1,10,0.04
2013-9-4,77.5,66.3,57.6,60.0,55.0,51.5,89,69,41,30.01,29.89,11,0,11,0.00
2013-9-5,72.3,64.2,55.0,59.1,50.9,41.4,81,64,35,30.16,29.95,10,1,10,0.00
2013-9-6,66.6,56.0,47.7,46.2,41.3,37.0,81,60,34,30.25,30.13,7,0,7,0.00
2013-9-7,75.0,60.6,46.4,52.8,45.9,41.0,85,62,35,30.13,29.92,10,1,10,0.00
2013-9-8,75.0,65.7,55.8,61.8,52.6,42.2,77,64,40,30.07,29.83,10,0,10,0.00
2013-9-9,70.7,60.4,49.6,57.4,47.7,41.3,80,64,47,30.22,30.07,9,1,9,0.00
2013-9-10,83.1,72.3,63.7,70.1,65.9,57.4,93,81,65,30.16,30.07,13,1,13,0.00
2013-9-11,89.4,79.3,70.2,75.1,71.1,67.4,93,77,57,30.13,30.01,9,1,9,0.00
2013-9-12,72.3,71.1,70.5,68.0,67.4,66.7,90,88,86,29.98,29.95,3,0,3,0.00
2013-9-16,55.8,54.2,53.1,46.5,45.8,44.8,74,73,71,30.25,30.19,0,0,0,0.00
2013-9-17,60.4,51.4,43.0,51.0,41.4,36.5,94,71,44,30.40,30.25,0,0,0,0.00
2013-9-18,66.9,52.3,39.4,51.6,40.1,35.4,90,67,36,30.34,30.19,0,0,0,0.00
2013-9-19,51.8,51.4,50.9,45.0,44.8,44.6,79,78,77,30.07,30.07,0,0,0,0.00
2013-9-20,74.7,61.0,48.2,62.0,51.2,43.9,91,72,44,30.07,29.98,0,0,0,0.00
2013-9-21,81.3,63.4,54.5,65.9,55.6,50.2,93,78,46,30.01,29.66,10,1,10,0.47
2013-9-22,63.1,57.7,50.5,58.3,48.5,37.2,95,73,46,29.92,29.69,4,0,4,0.16
2013-9-23,60.4,52.3,45.1,40.9,38.4,36.4,76,60,45,30.04,29.92,10,1,10,0.00
2013-9-24,68.2,53.8,41.4,44.5,41.1,36.3,85,65,39,30.04,29.89,10,1,10,0.00
2013-9-25,66.4,55.3,45.9,47.2,43.2,39.4,84,65,42,29.95,29.86,8,0,8,0.00
2013-9-26,67.5,56.6,46.4,58.2,49.9,42.5,93,79,57,30.10,29.95,4,0,4,0.00
2013-9-27,65.7,57.1,49.1,51.9,48.5,45.4,91,74,53,30.25,30.10,4,0,4,0.00
2013-9-28,67.8,58.6,50.4,53.7,48.7,44.7,91,72,46,30.31,30.22,5,0,5,0.00
2013-9-29,67.1,55.7,45.3,56.9,48.0,41.7,93,76,53,30.22,30.07,4,0,4,0.00
2013-9-30,68.7,55.9,44.8,56.3,46.5,41.7,94,73,45,30.07,29.98,6,0,6,0.00
2013-10-1,73.9,60.5,49.3,58.2,52.3,45.7,93,76,53,30.01,29.92,9,0,9,0.00
2013-10-2,79.0,65.0,51.6,59.5,54.7,47.9,93,72,45,30.04,29.95,11,1,11,0.00
2013-10-3,74.3,63.3,51.8,59.3,53.7,47.4,91,72,43,30.13,30.04,8,0,8,0.00
2013-10-4,80.4,68.0,57.6,66.7,59.4,53.4,94,76,49,30.07,29.98,10,1,10,0.00
2013-10-5,76.6,68.1,61.7,65.9,62.4,60.0,95,83,66,30.10,30.01,8,0,8,0.00
2013-10-6,66.6,65.1,63.5,65.5,63.6,60.8,97,95,86,30.07,30.01,8,1,8,0.00
2013-10-7,71.1,63.5,52.0,69.2,62.0,47.6,98,95,85,30.01,29.75,17,4,17,0.39
2013-10-8,52.0,49.1,47.3,47.8,45.7,44.2,90,88,85,30.16,29.98,6,0,6,0.00
2013-10-9,57.9,52.3,45.3,45.3,42.1,39.2,82,69,53,30.37,30.28,6,1,6,0.00
2013-10-10,56.7,53.8,50.2,50.2,46.9,42.3,86,78,70,30.28,30.07,5,1,5,0.00
2013-10-11,62.2,59.1,54.9,57.3,53.2,48.5,86,81,73,30.10,30.01,5,1,5,0.00
2013-10-12,67.6,61.5,55.4,55.5,44.9,36.3,82,56,32,30.25,30.07,13,2,13,0.00
2013-10-13,61.3,56.5,51.3,50.6,47.7,45.6,84,73,59,30.37,30.25,9,2,9,0.00
2013-10-14,64.4,53.5,43.7,52.0,44.3,39.2,94,73,48,30.34,30.22,5,0,5,0.00
2013-10-15,69.3,55.8,44.1,54.2,45.7,38.1,92,71,45,30.25,30.10,8,1,8,0.00
2013-10-16,65.3,57.9,50.4,56.2,49.7,39.8,88,75,59,30.10,29.92,5,1,6,0.00
2013-10-17,71.4,63.5,59.5,60.9,57.4,52.0,94,82,51,29.92,29.69,11,2,11,0.00
2013-10-18,63.9,56.8,45.0,60.9,41.4,35.6,90,58,39,29.98,29.69,13,2,13,0.00
2013-10-19,61.9,50.7,38.1,48.5,38.8,33.6,86,66,39,29.98,29.75,11,2,11,0.08
2013-10-20,58.8,49.6,38.7,48.4,35.7,29.8,88,61,36,30.04,29.78,15,2,15,0.04
2013-10-21,64.2,50.3,36.0,42.8,34.1,30.7,85,57,34,30.13,29.95,12,2,12,0.00
2013-10-22,61.9,51.3,42.3,49.3,39.5,30.3,87,65,48,29.95,29.75,15,2,15,0.00
2013-10-23,53.1,43.1,35.2,36.3,30.7,27.8,77,62,42,29.80,29.63,8,0,8,0.00
2013-10-24,49.5,40.7,32.7,33.5,26.5,20.1,84,59,38,29.98,29.75,14,1,14,0.00
2013-10-25,50.2,40.4,32.0,31.1,25.8,22.5,77,58,39,30.19,29.98,10,1,10,0.00
2013-10-26,52.7,42.0,30.0,31.8,26.6,22.8,80,57,37,30.19,29.86,15,3,15,0.04
2013-10-27,55.4,46.6,35.2,30.6,26.0,22.9,62,45,36,30.10,29.83,11,2,11,0.00
2013-10-28,58.6,44.6,30.4,33.0,28.1,23.3,78,55,35,30.28,30.10,12,1,12,0.00
2013-10-29,54.9,44.1,34.0,32.7,27.5,23.6,68,53,38,30.37,30.28,5,0,5,0.00
2013-10-30,55.8,45.6,33.1,45.9,38.2,24.4,84,75,67,30.31,30.16,7,1,7,0.00
2013-10-31,61.0,55.0,44.2,58.2,52.3,39.5,93,91,83,30.19,29.78,11,3,11,0.00
2013-11-1,66.2,60.2,46.8,62.6,52.9,41.3,94,78,50,29.78,29.54,20,4,20,0.35
2013-11-2,67.3,52.3,42.4,48.6,40.5,33.9,90,67,39,29.78,29.63,10,1,10,0.00
2013-11-3,48.0,41.4,29.7,39.1,27.3,14.1,76,58,39,30.40,29.78,10,1,10,0.00
2013-11-4,29.7,27.9,26.1,16.5,14.8,14.0,62,57,52,30.51,30.40,0,0,0,0.00
2013-11-5,53.2,42.8,29.7,37.2,29.4,17.0,72,60,46,30.57,30.42,6,1,11,0.00
2013-11-6,57.7,51.9,44.6,46.0,41.2,36.7,78,68,51,30.42,30.04,8,3,10,0.00
2013-11-7,57.9,50.0,35.2,54.4,45.1,29.3,91,83,73,30.04,29.75,12,3,12,0.20
2013-11-10,53.1,45.6,41.4,33.6,25.9,20.0,60,46,38,30.01,29.80,18,4,18,0.16
2013-11-11,51.3,43.5,33.4,27.8,23.5,17.8,56,45,39,30.16,29.92,15,3,15,0.00
2013-11-12,46.0,33.2,23.9,28.1,18.2,10.4,75,54,45,30.22,29.89,10,2,10,0.20
2013-11-13,37.0,28.4,21.7,14.9,11.9,8.7,66,51,37,30.31,30.19,10,2,10,0.20
2013-11-14,49.8,37.9,27.9,23.0,14.9,9.5,55,40,29,30.19,30.10,15,4,15,0.20
2013-11-15,57.6,41.8,32.2,25.8,17.8,10.7,55,39,27,30.19,30.10,11,2,11,0.20
2013-11-16,61.7,48.5,35.6,45.2,35.2,21.0,84,62,40,30.28,30.19,11,2,11,0.20
2013-11-17,58.5,53.7,47.7,56.7,51.4,42.8,95,92,81,30.22,29.75,14,3,14,0.00
2013-11-18,61.9,55.3,44.1,59.8,37.9,21.0,97,56,34,29.78,29.60,18,6,18,0.28
2013-11-19,46.6,38.5,29.5,23.2,18.5,14.9,55,44,39,30.28,29.78,14,3,14,0.20
2013-11-20,41.7,31.3,22.3,17.6,13.5,7.3,61,48,32,30.54,30.28,10,3,10,0.20
2013-11-21,49.6,36.7,19.6,35.6,23.9,10.9,77,61,43,30.54,30.34,10,1,10,0.20
2013-11-22,55.8,48.8,44.2,49.0,42.6,35.5,90,79,68,30.34,29.89,13,4,13,0.20
2013-11-23,49.5,37.2,25.7,46.1,19.9,4.5,88,50,38,30.04,29.86,17,3,17,0.04
2013-11-24,26.8,21.1,17.2,5.9,1.3,-1.6,44,41,38,30.31,29.98,21,3,21,0.00
2013-11-25,34.3,25.1,15.1,12.9,6.5,-0.6,53,45,41,30.37,30.22,13,4,13,0.00
2013-11-26,40.5,32.0,28.6,39.6,19.1,8.4,98,62,42,30.25,29.72,13,3,13,0.28
2013-11-27,57.4,39.9,27.1,56.8,38.7,15.1,98,96,61,29.72,29.36,16,3,16,0.98
2013-11-28,32.7,26.7,22.6,15.7,10.9,7.0,62,51,41,30.37,29.72,15,2,15,0.00
2013-11-29,36.7,27.7,19.8,18.8,14.2,9.0,68,57,46,30.63,30.37,8,0,8,0.00
2013-11-30,33.1,26.4,17.6,29.6,14.6,7.0,94,62,43,30.63,30.31,10,2,10,0.00
2013-12-1,47.7,34.5,23.5,43.2,30.4,22.3,96,85,69,30.31,29.95,8,1,8,0.00
2013-12-2,45.5,35.5,28.0,31.8,26.4,21.5,80,70,50,29.95,29.83,5,0,5,0.00
2013-12-3,50.9,36.2,27.1,37.7,27.4,21.7,90,72,42,29.95,29.83,8,1,8,0.00
2013-12-4,52.0,40.8,28.0,41.8,32.7,23.5,92,74,52,30.07,29.95,7,1,7,0.00
2013-12-5,54.0,49.9,45.3,53.4,48.2,40.5,98,94,81,30.07,29.89,8,2,8,0.04
2013-12-6,57.9,43.3,34.5,57.4,42.8,34.0,98,98,98,30.10,29.83,9,3,9,0.75
2013-12-7,57.7,33.6,24.1,54.8,31.4,13.1,98,92,61,30.45,30.04,12,1,12,0.04
2013-12-8,28.9,25.3,21.0,25.0,15.3,11.0,85,66,52,30.48,30.28,8,2,8,0.00
2013-12-9,35.6,33.0,28.9,32.7,30.2,25.0,93,90,85,30.28,29.92,8,3,8,0.08
2013-12-10,33.1,30.4,21.2,30.4,25.6,11.6,91,82,62,30.04,29.83,0,0,0,0.00
2013-12-11,41.7,25.9,19.2,19.6,11.9,8.5,66,56,41,30.22,30.04,0,0,0,0.00
2013-12-12,26.8,19.9,13.8,11.9,4.7,-0.3,65,51,42,30.25,30.07,0,0,0,0.00
2013-12-13,32.9,22.2,9.1,15.4,6.7,-5.9,69,51,42,30.25,30.04,15,1,15,0.00
2013-12-14,27.0,21.6,17.1,25.3,15.3,13.0,95,77,64,30.37,29.72,13,5,13,0.00
2013-12-15,36.0,28.3,21.2,31.4,23.8,15.9,98,84,64,29.78,29.51,14,2,14,0.00
2013-12-16,28.9,21.3,8.6,19.0,6.4,-3.1,73,53,42,30.13,29.75,0,0,0,0.00
2013-12-17,23.5,16.9,9.1,18.4,10.2,-2.6,84,75,58,30.13,29.86,0,0,0,0.00
2013-12-18,37.4,23.7,12.4,22.3,14.1,8.3,86,68,46,30.10,29.86,17,1,17,0.00
2013-12-19,42.1,28.7,11.5,24.4,17.5,4.8,81,64,43,30.10,29.95,12,2,12,0.12
2013-12-20,49.1,39.2,29.5,31.2,26.6,22.9,80,62,45,30.04,29.92,9,3,11,0.31
2013-12-21,57.2,47.7,39.7,50.6,38.4,29.7,92,71,51,29.95,29.86,10,4,10,0.00
2013-12-22,63.9,59.2,52.2,61.5,56.2,50.1,98,90,76,29.92,29.75,18,6,18,0.00
2013-12-23,56.7,50.0,33.6,55.9,48.2,25.7,98,94,72,30.10,29.89,11,1,11,0.79
2013-12-24,38.5,30.0,19.6,26.1,17.4,4.6,74,60,46,30.28,30.04,13,2,13,0.00
2013-12-25,26.1,20.1,12.6,7.6,4.0,-0.5,58,49,43,30.42,30.28,13,2,13,0.00
2013-12-26,31.5,24.6,17.6,23.0,16.3,7.8,82,71,54,30.31,30.07,11,3,11,0.00
2013-12-27,36.5,27.4,18.9,20.9,17.1,13.4,84,66,45,30.25,30.19,8,2,15,0.00
2013-12-28,48.7,34.8,22.1,24.9,20.3,16.0,80,57,38,30.22,30.01,13,3,13,0.00
2013-12-29,41.5,37.4,32.4,38.5,30.0,22.3,98,76,50,30.01,29.45,8,2,11,0.71
2013-12-30,38.1,30.1,17.1,37.6,23.9,4.8,98,79,55,30.10,29.66,11,2,11,0.00
2013-12-31,27.5,21.2,13.8,18.7,7.7,2.1,70,56,46,30.19,29.98,15,3,15,0.00
2014-1-1,31.1,23.7,14.9,15.0,10.3,1.4,70,56,47,30.31,30.16,10,2,10,0.00
2014-1-2,26.4,20.5,9.5,17.7,13.7,4.9,84,75,59,30.16,29.60,9,5,9,0.00